Vorticity
6 4 14 11 -0 6 20 -4 6 7 14 20 5 3 10 -4 16 13 -7 10 -15 2
16 -2 14 16 12 -7 11 11 2 8 15 7 -0 2 30 3 5 6 14 3 6 1
0 3 8 16 18 9 -1 7 5 6 17 -13 28 9 -11 10 9 13 -6 29 -11 2
14 -25 10 -9 -8 2 12 1 21 15 -4 6 -9 17 16 21 -0 23 -2 1 5 12
25 24 31 -4 -12 5 5 35 -7 -3 14 25 11 -13 12 10 12 13 8 11 29 3
30 9 37 16 -5 -2 21 -8 -23 22 20 -14 18 9 5 34 -3 16 29 -3 15 -4
22 20 22 14 24 18 6 28 19 16 7 27 3 19 16 4 -3 33 -14 21 15 15
11 10 14 15 17 18 14 10 3 0 2 -3 2 8 1 13 11 8 17 16 17 15
11 6 7 4 6 6 7 8 5 18 26 23 21 27 31 17 21 31 18 21 18 9
13 13 14 15 18 18 19 22 21 21 22 24 25 18 9 6 11 14 12 10 8 6
14 14 12 13 15 14 15 17 16 17 20 19 19 18 19 18 12 9 8 8 6 6
14 14 12 11 11 9 9 9 6 3 2 4 6 8 8 10 8 7 7 7 8 10
16 15 13 12 13 12 10 11 9 10 11 9 9 8 6 7 5 9 9 10 11 11
10 11 12 12 12 13 12 12 12 10 9 9 6 7 10 9 11 11 12 11 11 11
Height
2991 2995 3000 3005 3011 3017 3023 3030 3033 3039 3043 3048 3051 3057 3061 3065 3068 3071 3076 3079 3083 3087
2980 2986 2991 2996 3002 3006 3013 3019 3025 3029 3034 3039 3044 3048 3052 3056 3061 3066 3069 3073 3076 3080
2969 2977 2982 2987 2993 2999 3004 3010 3015 3020 3025 3029 3034 3039 3044 3048 3052 3056 3060 3063 3067 3072
2957 2964 2974 2979 2984 2989 2995 3001 3005 3011 3016 3021 3025 3029 3034 3039 3043 3047 3051 3056 3060 3063
2947 2953 2957 2967 2973 2979 2984 2990 2998 3003 3006 3011 3016 3021 3026 3029 3035 3039 3043 3046 3049 3054
2940 2943 2951 2957 2964 2970 2976 2981 2986 2991 2996 3002 3007 3011 3017 3020 3025 3030 3033 3037 3041 3045
2935 2937 2944 2945 2954 2960 2966 2972 2976 2982 2987 2992 2997 3001 3006 3011 3016 3020 3024 3026 3031 3035
2930 2936 2937 2941 2948 2952 2957 2963 2969 2974 2979 2983 2988 2993 2998 3003 3006 3012 3013 3017 3021 3025
2928 2932 2934 2939 2943 2946 2951 2956 2961 2966 2970 2974 2977 2981 2987 2992 2997 3002 3005 3010 3014 3018
2926 2928 2931 2935 2938 2942 2946 2950 2954 2958 2962 2966 2970 2975 2980 2985 2990 2994 2998 3003 3006 3009
2923 2926 2928 2931 2933 2938 2943 2947 2951 2955 2959 2963 2966 2970 2974 2978 2982 2987 2991 2995 2999 3004
2922 2924 2926 2929 2933 2936 2941 2945 2949 2952 2956 2959 2963 2966 2969 2973 2977 2982 2986 2991 2995 2999
2922 2924 2925 2928 2931 2934 2938 2941 2944 2948 2951 2954 2958 2962 2966 2970 2974 2978 2982 2986 2991 2994
2921 2923 2925 2927 2928 2932 2935 2937 2940 2943 2946 2950 2954 2958 2962 2965 2969 2974 2978 2982 2985 2989